Regional Weather Roundup
Issued by NWS

Home | Current Version | Previous Version | Graphics & Text | Print | Product List | Glossary On
Versions: 1 2 3 4 5 6 7 8 9 10 11 12 13 14 15 16 17 18 19 20 21 22 23 24 25 26 27 28 29 30 31 32 33 34 35 36 37 38 39 40 41 42 43 44 45 46 47 48 49 50
000
ASUS44 KMEG 301810
RWRTN
TENNESSEE HOURLY STATE WEATHER ROUNDUP
NATIONAL WEATHER SERVICE MEMPHIS TN
1200 PM CST FRI JAN 30 2015

TNZ002-004-019-021-049-052-054-088>092-301900-
WEST TENNESSEE

CITY           SKY/WX    TMP DP  RH WIND       PRES   REMARKS
MEMPHIS INTL   MOSUNNY   46  24  42 NE12      30.48F
NWS MEMPHIS      N/A     44 N/A N/A MISG        N/A
JACKSON        SUNNY     44  24  45 NE9       30.49F
DYERSBURG      SUNNY     43  18  36 NE3       30.53F
UNION CITY     SUNNY     37  25  60 VRB5      30.50F WCI  34
PARIS          SUNNY     39  21  48 N7        30.49F WCI  34
LEXINGTON      SUNNY     41  21  45 N10       30.47F
SAVANNAH       SUNNY     43  25  49 N13       30.47F
$$

TNZ008-025-027-028-033-062-065-066-301900-
NORTH MIDDLE TENNESSEE

CITY           SKY/WX    TMP DP  RH WIND       PRES   REMARKS
NASHVILLE      MOSUNNY   43  20  39 N8        30.46F
CLARKSVILLE    MOSUNNY   40  23  50 MISG      30.49F
SMYRNA         SUNNY     42  22  45 N14       30.47F
COOKEVILLE     MOSUNNY   39  23  52 N10       30.41F WCI  32
CROSSVILLE     PTSUNNY   35  20  54 NW12      30.37F WCI  27
$$

TNZ061-075-076-078-094-096-097-301900-
SOUTH MIDDLE TENNESSEE

CITY           SKY/WX    TMP DP  RH WIND       PRES   REMARKS
FAYETTEVILLE   SUNNY     39  19  45 MISG      30.41F
TULLAHOMA      SUNNY     39  19  45 N10       30.41F WCI  32
WINCHESTER     SUNNY     39  21  48 N10       30.41F WCI  32
MCMINNVILLE    SUNNY     39  23  52 N10       30.41F WCI  32
COLUMBIA       SUNNY     43  25  49 N8        30.44F
SHELBYVILLE    SUNNY     41  23  48 N13       30.44F
$$

TNZ017-018-042-046-047-301900-
NORTHEAST TENNESSEE

CITY           SKY/WX    TMP DP  RH WIND       PRES   REMARKS
TRI CITIES     PTSUNNY   39  19  44 W17G28    30.28F WCI  30
ELIZABETHTON   MOCLDY    34  18  51 W12       30.27S WCI  25
$$

TNZ012-013-036-069-073-074-301900-
CENTRAL EAST TENNESSEE

CITY           SKY/WX    TMP DP  RH WIND       PRES   REMARKS
KNOXVILLE      PTSUNNY   40  21  46 N9        30.38F WCI  34
OAK RIDGE      MOSUNNY   42  21  43 N9G16     30.39F
GATLINBURG     MOCLDY    37  19  48 NW10      30.36F WCI  30
MORRISTOWN     PTCLDY    37  19  48 NW16      30.34F WCI  28
$$

TNZ083-085-099-301900-
SOUTHEAST TENNESSEE

CITY           SKY/WX    TMP DP  RH WIND       PRES   REMARKS
CHATTANOOGA    MOSUNNY   45  21  38 N15G28    30.39F
$$

SKY/WX REPORTED AS FAIR MEANS FEW OR NO CLOUDS BELOW
12 THOUSAND FEET.




USA.gov is the U.S. government's official web portal to all federal, state and local government web resources and services.